Time,TemperatureF,DewpointF,PressureIn,WindDirection,WindDirectionDegrees,WindSpeedMPH,WindSpeedGustMPH,Humidity,HourlyPrecipIn,Conditions,Clouds,dailyrainin,SolarRadiationWatts/m^2,SoftwareType,DateUTC
2013-06-30 00:00:00,58.5,54.7,30.07,NW,307,5.0,10.0,87,0.01,,---,0.01,0.00,VWS V14.01,2013-06-29 22:00:00,
2013-06-30 00:10:00,58.1,54.6,30.07,West,281,7.0,7.0,88,0.02,,---,0.01,0.00,VWS V14.01,2013-06-29 22:10:00,
2013-06-30 00:20:00,57.7,54.5,30.07,NNW,334,3.0,12.0,89,0.02,,---,0.01,0.00,VWS V14.01,2013-06-29 22:20:00,
2013-06-30 00:25:00,57.7,54.5,30.07,NW,326,8.0,10.0,89,0.02,,---,0.01,0.00,VWS V14.01,2013-06-29 22:25:00,
2013-06-30 00:35:00,57.3,54.4,30.07,WNW,303,7.0,10.0,90,0.02,,---,0.01,0.00,VWS V14.01,2013-06-29 22:35:00,
2013-06-30 00:40:00,57.0,54.1,30.07,NNW,340,7.0,10.0,90,0.02,,---,0.01,0.00,VWS V14.01,2013-06-29 22:40:00,
2013-06-30 00:45:00,56.7,53.8,30.08,WNW,296,9.0,11.0,90,0.02,,---,0.02,0.00,VWS V14.01,2013-06-29 22:45:00,
2013-06-30 00:55:00,56.3,53.7,30.08,NW,323,10.0,12.0,91,0.02,,---,0.02,0.00,VWS V14.01,2013-06-29 22:55:00,
2013-06-30 01:00:00,56.0,53.4,30.08,NW,310,4.0,10.0,91,0.02,,---,0.02,0.00,VWS V14.01,2013-06-29 23:00:00,
2013-06-30 01:10:00,55.7,53.1,30.08,NNW,329,10.0,10.0,91,0.02,,---,0.02,0.00,VWS V14.01,2013-06-29 23:10:00,
2013-06-30 01:15:00,55.5,52.6,30.08,North,351,6.0,11.0,90,0.01,,---,0.02,0.00,VWS V14.01,2013-06-29 23:15:00,
2013-06-30 01:20:00,55.5,52.6,30.08,North,351,5.0,5.0,90,0.01,,---,0.02,0.00,VWS V14.01,2013-06-29 23:20:00,
2013-06-30 01:25:00,55.5,52.6,30.08,NW,321,5.0,10.0,90,0.01,,---,0.02,0.00,VWS V14.01,2013-06-29 23:25:00,
2013-06-30 01:30:00,55.5,52.6,30.08,NNW,329,2.0,9.0,90,0.01,,---,0.02,0.00,VWS V14.01,2013-06-29 23:30:00,
2013-06-30 01:40:00,55.5,52.6,30.08,NNE,12,11.0,12.0,90,0.01,,---,0.02,0.00,VWS V14.01,2013-06-29 23:40:00,
2013-06-30 01:45:00,55.3,52.4,30.09,NNW,333,5.0,5.0,90,0.01,,---,0.02,0.00,VWS V14.01,2013-06-29 23:45:00,
2013-06-30 01:50:00,55.3,52.4,30.09,NW,322,1.0,10.0,90,0.00,,---,0.02,0.00,VWS V14.01,2013-06-29 23:50:00,
2013-06-30 01:55:00,55.2,52.3,30.09,NW,326,6.0,9.0,90,0.00,,---,0.02,0.00,VWS V14.01,2013-06-29 23:55:00,
2013-06-30 02:00:00,55.1,52.2,30.09,NNW,327,3.0,7.0,90,0.00,,---,0.02,0.00,VWS V14.01,2013-06-30 00:00:00,
2013-06-30 02:10:00,54.9,51.7,30.09,North,360,2.0,10.0,89,0.00,,---,0.02,0.00,VWS V14.01,2013-06-30 00:10:00,
2013-06-30 02:15:00,54.8,51.6,30.10,NNW,339,2.0,6.0,89,0.00,,---,0.02,0.00,VWS V14.01,2013-06-30 00:15:00,
2013-06-30 02:20:00,54.8,51.6,30.10,NNW,346,0.0,5.0,89,0.00,,---,0.02,0.00,VWS V14.01,2013-06-30 00:20:00,
2013-06-30 02:30:00,54.7,51.5,30.10,NNW,328,4.0,4.0,89,0.00,,---,0.02,0.00,VWS V14.01,2013-06-30 00:30:00,
2013-06-30 02:35:00,54.6,51.4,30.10,NW,326,6.0,9.0,89,0.00,,---,0.02,0.00,VWS V14.01,2013-06-30 00:35:00,
2013-06-30 02:40:00,54.5,51.0,30.10,NW,306,4.0,5.0,88,0.00,,---,0.02,0.00,VWS V14.01,2013-06-30 00:40:00,
2013-06-30 02:45:00,54.4,50.9,30.10,NW,318,3.0,7.0,88,0.00,,---,0.02,0.00,VWS V14.01,2013-06-30 00:45:00,
2013-06-30 02:55:00,54.3,50.8,30.10,NW,306,4.0,5.0,88,0.00,,---,0.02,0.00,VWS V14.01,2013-06-30 00:55:00,
2013-06-30 03:00:00,54.2,50.7,30.11,NW,306,2.0,4.0,88,0.00,,---,0.02,0.00,VWS V14.01,2013-06-30 01:00:00,
2013-06-30 03:10:00,54.2,50.4,30.11,WNW,298,0.0,5.0,87,0.00,,---,0.02,0.00,VWS V14.01,2013-06-30 01:10:00,
2013-06-30 03:15:00,54.2,50.4,30.11,NW,325,2.0,2.0,87,0.00,,---,0.02,0.00,VWS V14.01,2013-06-30 01:15:00,
2013-06-30 03:20:00,54.1,50.3,30.11,WNW,302,0.0,6.0,87,0.00,,---,0.02,0.00,VWS V14.01,2013-06-30 01:20:00,
2013-06-30 03:25:00,54.1,50.3,30.11,NNW,338,2.0,5.0,87,0.00,,---,0.02,0.00,VWS V14.01,2013-06-30 01:25:00,
2013-06-30 03:30:00,54.0,50.2,30.11,NNW,337,8.0,9.0,87,0.00,,---,0.02,0.00,VWS V14.01,2013-06-30 01:30:00,
2013-06-30 03:35:00,54.0,50.2,30.11,NNW,347,4.0,7.0,87,0.00,,---,0.02,0.00,VWS V14.01,2013-06-30 01:35:00,
2013-06-30 03:40:00,54.0,50.2,30.11,NW,317,0.0,6.0,87,0.00,,---,0.02,0.00,VWS V14.01,2013-06-30 01:40:00,
2013-06-30 03:45:00,53.9,50.1,30.11,NNW,336,4.0,6.0,87,0.00,,---,0.02,0.00,VWS V14.01,2013-06-30 01:45:00,
2013-06-30 03:50:00,53.9,50.1,30.11,NW,311,0.0,4.0,87,0.00,,---,0.02,0.00,VWS V14.01,2013-06-30 01:50:00,
2013-06-30 03:55:00,53.9,50.1,30.11,North,355,1.0,3.0,87,0.00,,---,0.02,0.00,VWS V14.01,2013-06-30 01:55:00,
2013-06-30 04:00:00,53.8,49.7,30.11,North,355,0.0,3.0,86,0.00,,---,0.02,0.00,VWS V14.01,2013-06-30 02:00:00,
2013-06-30 04:10:00,53.8,49.7,30.11,NNW,346,1.0,5.0,86,0.00,,---,0.02,0.00,VWS V14.01,2013-06-30 02:10:00,
2013-06-30 04:20:00,53.6,49.5,30.11,North,355,0.0,5.0,86,0.00,,---,0.02,0.00,VWS V14.01,2013-06-30 02:20:00,
2013-06-30 04:30:00,53.5,49.4,30.12,North,5,3.0,3.0,86,0.00,,---,0.02,0.00,VWS V14.01,2013-06-30 02:30:00,
2013-06-30 04:35:00,53.5,49.4,30.12,North,5,0.0,0.0,86,0.00,,---,0.02,0.00,VWS V14.01,2013-06-30 02:35:00,
2013-06-30 04:45:00,53.5,49.1,30.12,NNW,337,1.0,5.0,85,0.00,,---,0.02,0.00,VWS V14.01,2013-06-30 02:45:00,
2013-06-30 04:50:00,53.4,49.0,30.12,North,355,0.0,1.0,85,0.00,,---,0.02,0.00,VWS V14.01,2013-06-30 02:50:00,
2013-06-30 04:55:00,53.3,48.9,30.12,North,355,0.0,2.0,85,0.00,,---,0.02,0.00,VWS V14.01,2013-06-30 02:55:00,
2013-06-30 05:00:00,53.3,48.9,30.13,NNE,13,5.0,5.0,85,0.00,,---,0.02,0.00,VWS V14.01,2013-06-30 03:00:00,
2013-06-30 05:10:00,53.1,48.1,30.13,NW,319,5.0,7.0,83,0.00,,---,0.02,0.00,VWS V14.01,2013-06-30 03:10:00,
2013-06-30 05:15:00,53.1,48.1,30.13,WNW,294,0.0,4.0,83,0.00,,---,0.02,0.00,VWS V14.01,2013-06-30 03:15:00,
2013-06-30 05:20:00,53.0,48.0,30.13,WNW,290,10.0,10.0,83,0.00,,---,0.02,0.00,VWS V14.01,2013-06-30 03:20:00,
2013-06-30 05:25:00,52.9,47.6,30.13,West,277,0.0,1.0,82,0.00,,---,0.02,0.00,VWS V14.01,2013-06-30 03:25:00,
2013-06-30 05:30:00,52.8,47.5,30.13,NW,311,0.0,5.0,82,0.00,,---,0.02,5.00,VWS V14.01,2013-06-30 03:30:00,
2013-06-30 05:40:00,52.6,46.9,30.13,North,349,6.0,9.0,81,0.00,,---,0.02,11.00,VWS V14.01,2013-06-30 03:40:00,
2013-06-30 05:45:00,52.5,46.8,30.14,North,5,1.0,7.0,81,0.00,,---,0.02,14.00,VWS V14.01,2013-06-30 03:45:00,
2013-06-30 05:55:00,52.3,46.7,30.14,NW,324,4.0,7.0,81,0.00,,---,0.02,23.00,VWS V14.01,2013-06-30 03:55:00,
2013-06-30 06:00:00,52.2,46.5,30.14,North,9,6.0,9.0,81,0.00,,---,0.02,32.00,VWS V14.01,2013-06-30 04:00:00,
2013-06-30 06:05:00,52.1,46.1,30.14,North,355,4.0,6.0,80,0.00,,---,0.02,51.00,VWS V14.01,2013-06-30 04:05:00,
2013-06-30 06:10:00,52.1,46.5,30.14,NNW,345,2.0,4.0,81,0.00,,---,0.02,67.00,VWS V14.01,2013-06-30 04:10:00,
2013-06-30 06:25:00,52.1,45.8,30.14,NW,318,5.0,9.0,79,0.00,,---,0.02,90.00,VWS V14.01,2013-06-30 04:25:00,
2013-06-30 06:35:00,52.0,46.0,30.14,NW,319,2.0,9.0,80,0.00,,---,0.02,84.00,VWS V14.01,2013-06-30 04:35:00,
2013-06-30 06:40:00,52.0,45.7,30.14,North,355,5.0,9.0,79,0.00,,---,0.02,76.00,VWS V14.01,2013-06-30 04:40:00,
2013-06-30 06:45:00,51.9,45.6,30.14,NNW,331,2.0,5.0,79,0.00,,---,0.02,74.00,VWS V14.01,2013-06-30 04:45:00,
2013-06-30 06:51:00,52.0,46.0,30.14,NNW,344,3.0,6.0,80,0.00,,---,0.02,54.00,VWS V14.01,2013-06-30 04:51:00,
2013-06-30 07:00:00,51.8,45.5,30.15,NNW,338,3.0,9.0,79,0.00,,---,0.02,77.00,VWS V14.01,2013-06-30 05:00:00,
2013-06-30 07:10:00,51.5,45.2,30.15,WNW,298,4.0,9.0,79,0.00,,---,0.02,214.00,VWS V14.01,2013-06-30 05:10:00,
2013-06-30 07:15:00,51.4,45.1,30.15,NW,314,4.0,12.0,79,0.00,,---,0.02,229.00,VWS V14.01,2013-06-30 05:15:00,
2013-06-30 07:20:00,51.5,45.2,30.15,North,349,12.0,14.0,79,0.00,,---,0.02,295.00,VWS V14.01,2013-06-30 05:20:00,
2013-06-30 07:30:00,51.7,45.1,30.15,NNE,21,6.0,11.0,78,0.00,,---,0.02,237.00,VWS V14.01,2013-06-30 05:30:00,
2013-06-30 07:35:00,51.7,45.1,30.15,WNW,299,5.0,10.0,78,0.00,,---,0.02,274.00,VWS V14.01,2013-06-30 05:35:00,
2013-06-30 07:50:00,52.1,45.1,30.15,West,269,5.0,9.0,77,0.00,,---,0.02,309.00,VWS V14.01,2013-06-30 05:50:00,
2013-06-30 07:55:00,52.2,44.5,30.15,NW,307,10.0,13.0,75,0.00,,---,0.02,432.00,VWS V14.01,2013-06-30 05:55:00,
2013-06-30 08:00:00,52.4,44.7,30.15,NW,320,11.0,11.0,75,0.00,,---,0.02,329.00,VWS V14.01,2013-06-30 06:00:00,
2013-06-30 08:10:00,52.4,44.4,30.15,NW,313,3.0,10.0,74,0.00,,---,0.02,206.00,VWS V14.01,2013-06-30 06:10:00,
2013-06-30 08:45:00,53.8,44.3,30.16,NNW,335,8.0,10.0,70,0.00,,---,0.02,737.00,VWS V14.01,2013-06-30 06:45:00,
2013-06-30 09:05:00,56.4,43.6,30.16,North,9,6.0,10.0,62,0.00,,---,0.02,823.00,VWS V14.01,2013-06-30 07:05:00,
2013-06-30 09:10:00,55.5,42.3,30.16,North,355,12.0,12.0,61,0.00,,---,0.02,253.00,VWS V14.01,2013-06-30 07:10:00,
2013-06-30 09:25:00,55.4,43.0,30.16,NNE,26,5.0,5.0,63,0.00,,---,0.02,777.00,VWS V14.01,2013-06-30 07:25:00,
2013-06-30 09:30:00,55.6,42.8,30.16,North,5,3.0,15.0,62,0.00,,---,0.02,686.00,VWS V14.01,2013-06-30 07:30:00,
2013-06-30 09:45:00,54.5,41.8,30.17,NNW,327,4.0,7.0,62,0.00,,---,0.02,285.00,VWS V14.01,2013-06-30 07:45:00,
2013-06-30 09:50:00,54.6,42.3,30.17,North,360,4.0,11.0,63,0.00,,---,0.02,297.00,VWS V14.01,2013-06-30 07:50:00,
2013-06-30 09:55:00,54.5,42.2,30.17,West,273,0.0,8.0,63,0.00,,---,0.02,404.00,VWS V14.01,2013-06-30 07:55:00,
2013-06-30 10:00:00,54.4,41.7,30.17,NW,317,11.0,15.0,62,0.00,,---,0.02,225.00,VWS V14.01,2013-06-30 08:00:00,
2013-06-30 10:10:00,54.3,42.0,30.17,WNW,302,12.0,12.0,63,0.00,,---,0.02,369.00,VWS V14.01,2013-06-30 08:10:00,
2013-06-30 10:15:00,54.2,41.9,30.17,NNW,341,10.0,10.0,63,0.00,,---,0.02,473.00,VWS V14.01,2013-06-30 08:15:00,
2013-06-30 10:20:00,54.5,42.2,30.17,North,349,10.0,13.0,63,0.00,,---,0.02,394.00,VWS V14.01,2013-06-30 08:20:00,
2013-06-30 10:25:00,54.9,41.7,30.17,West,278,6.0,11.0,61,0.00,,---,0.02,264.00,VWS V14.01,2013-06-30 08:25:00,
2013-06-30 10:30:00,55.3,42.5,30.17,NW,304,12.0,12.0,62,0.00,,---,0.02,675.00,VWS V14.01,2013-06-30 08:30:00,
2013-06-30 10:35:00,55.4,42.2,30.17,WNW,303,4.0,4.0,61,0.00,,---,0.02,679.00,VWS V14.01,2013-06-30 08:35:00,
2013-06-30 10:40:00,55.5,42.7,30.17,NNW,340,8.0,11.0,62,0.00,,---,0.02,835.00,VWS V14.01,2013-06-30 08:40:00,
2013-06-30 10:50:00,55.8,43.0,30.17,NW,309,0.0,7.0,62,0.00,,---,0.02,380.00,VWS V14.01,2013-06-30 08:50:00,
2013-06-30 10:55:00,56.2,43.4,30.17,NNW,338,11.0,11.0,62,0.00,,---,0.02,585.00,VWS V14.01,2013-06-30 08:55:00,
2013-06-30 11:40:00,57.4,43.2,30.18,NW,313,11.0,11.0,59,0.00,,---,0.02,768.00,VWS V14.01,2013-06-30 09:40:00,
2013-06-30 11:50:00,57.3,42.2,30.17,NW,304,15.0,15.0,57,0.00,,---,0.02,471.00,VWS V14.01,2013-06-30 09:50:00,
2013-06-30 12:00:00,57.6,43.4,30.17,NNW,331,7.0,12.0,59,0.00,,---,0.02,413.00,VWS V14.01,2013-06-30 10:00:00,
2013-06-30 12:10:00,57.8,43.6,30.17,NNW,333,7.0,13.0,59,0.00,,---,0.02,304.00,VWS V14.01,2013-06-30 10:10:00,
2013-06-30 12:15:00,57.8,43.6,30.18,NNW,348,9.0,14.0,59,0.00,,---,0.02,1023.00,VWS V14.01,2013-06-30 10:15:00,
2013-06-30 12:20:00,58.6,43.9,30.18,North,5,3.0,9.0,58,0.00,,---,0.02,1069.00,VWS V14.01,2013-06-30 10:20:00,
2013-06-30 12:40:00,59.0,42.4,30.17,NW,307,4.0,13.0,54,0.00,,---,0.02,334.00,VWS V14.01,2013-06-30 10:40:00,
2013-06-30 12:45:00,59.0,42.9,30.17,North,360,5.0,12.0,55,0.00,,---,0.02,1028.00,VWS V14.01,2013-06-30 10:45:00,
2013-06-30 12:50:00,59.4,43.2,30.17,North,355,0.0,6.0,55,0.00,,---,0.02,1067.00,VWS V14.01,2013-06-30 10:50:00,
2013-06-30 12:55:00,59.9,42.7,30.17,North,360,6.0,11.0,53,0.00,,---,0.02,385.00,VWS V14.01,2013-06-30 10:55:00,
2013-06-30 13:00:00,59.0,42.4,30.17,WNW,284,11.0,13.0,54,0.00,,---,0.02,726.00,VWS V14.01,2013-06-30 11:00:00,
2013-06-30 13:10:00,59.0,42.9,30.17,WNW,284,7.0,10.0,55,0.00,,---,0.02,353.00,VWS V14.01,2013-06-30 11:10:00,
2013-06-30 13:15:00,59.7,42.6,30.17,North,351,5.0,11.0,53,0.00,,---,0.02,374.00,VWS V14.01,2013-06-30 11:15:00,
2013-06-30 13:25:00,60.6,43.4,30.17,West,277,3.0,12.0,53,0.00,,---,0.02,1042.00,VWS V14.01,2013-06-30 11:25:00,
2013-06-30 17:05:00,63.7,45.2,30.12,NNW,335,8.0,13.0,51,0.01,,---,0.02,267.00,VWS V14.01,2013-06-30 15:05:00,